80002 ZGGG-ZSSS

Flight info

Callsign 80002
Flight time N/A
Altitude 35100
Route LMN G471 XEBUL H22 UPNUG W76 AREPI B221 SHZ G204 JTN
Aircraft B752/M-SDE3FGHIM3RWXY/LB1

Departure

Time 2026-04-29 11:11
Airport Guangzhou Baiyun International Airport (ZGGG)

Arrival

Time N/A
Airport Shanghai Hongqiao International Airport (ZSSS)
Time Latitude Longitude Altitude Speed Heading
2026-04-29 11:05 23.36942 113.31881 53 ft 12 kts 191°
2026-04-29 11:05 23.36938 113.31880 53 ft 13 kts 191°
2026-04-29 11:06 23.36897 113.31885 53 ft 8 kts 148°
2026-04-29 11:06 23.36849 113.31914 53 ft 9 kts 155°
2026-04-29 11:06 23.36808 113.31931 53 ft 10 kts 164°
2026-04-29 11:07 23.36763 113.31934 53 ft 12 kts 185°
2026-04-29 11:07 23.36696 113.31917 53 ft 18 kts 195°
2026-04-29 11:07 23.36473 113.31856 53 ft 30 kts 193°
2026-04-29 11:08 23.36233 113.31792 53 ft 39 kts 194°
2026-04-29 11:08 23.35934 113.31715 53 ft 48 kts 197°
2026-04-29 11:08 23.35646 113.31634 53 ft 8 kts 194°
2026-04-29 11:08 23.35591 113.31620 53 ft 6 kts 184°
2026-04-29 11:09 23.35555 113.31645 53 ft 6 kts 115°
2026-04-29 11:09 23.35533 113.31727 53 ft 22 kts 102°
2026-04-29 11:09 23.35500 113.31891 53 ft 16 kts 85°
2026-04-29 11:09 23.35593 113.31947 53 ft 20 kts 13°
2026-04-29 11:10 23.35941 113.32042 54 ft 93 kts 13°
2026-04-29 11:10 23.36763 113.32270 280 ft 149 kts 15°
2026-04-29 11:11 23.36784 113.32276 291 ft 149 kts 15°
2026-04-29 11:11 23.37955 113.32591 893 ft 194 kts 14°
2026-04-29 11:11 23.39358 113.33108 1373 ft 217 kts 25°
2026-04-29 11:11 23.40592 113.33793 1784 ft 182 kts 28°
2026-04-29 11:12 23.41628 113.34500 2251 ft 178 kts 33°
2026-04-29 11:12 23.42663 113.35338 2767 ft 195 kts 37°
2026-04-29 11:12 23.43761 113.36344 3290 ft 215 kts 40°
2026-04-29 11:12 23.44915 113.37492 3835 ft 234 kts 41°
2026-04-29 11:13 23.46105 113.38734 4593 ft 243 kts 42°
2026-04-29 11:13 23.47337 113.40055 5315 ft 254 kts 43°
2026-04-29 11:13 23.48609 113.41442 6093 ft 262 kts 43°
2026-04-29 11:13 23.49905 113.42879 6791 ft 274 kts 46°
2026-04-29 11:14 23.50927 113.44738 7249 ft 298 kts 71°
2026-04-29 11:14 23.51490 113.46933 7985 ft 307 kts 74°
2026-04-29 11:14 23.52069 113.49186 8811 ft 313 kts 74°
2026-04-29 11:14 23.52648 113.51501 9546 ft 320 kts 75°
2026-04-29 11:15 23.53230 113.53857 10342 ft 326 kts 75°
2026-04-29 11:15 23.53816 113.56305 10786 ft 345 kts 75°
2026-04-29 11:15 23.54425 113.58942 11143 ft 365 kts 75°
2026-04-29 11:15 23.55058 113.61681 11474 ft 385 kts 75°
2026-04-29 11:16 23.55731 113.64597 11784 ft 404 kts 75°
2026-04-29 11:16 23.56420 113.67595 12468 ft 408 kts 77°
2026-04-29 11:16 23.56915 113.70657 13090 ft 414 kts 83°
2026-04-29 11:16 23.57307 113.73789 13763 ft 417 kts 82°
2026-04-29 11:17 23.57709 113.76928 14387 ft 421 kts 82°
2026-04-29 11:17 23.58112 113.80080 14958 ft 425 kts 82°
2026-04-29 11:17 23.58522 113.83299 15551 ft 428 kts 82°
2026-04-29 11:17 23.58930 113.86501 16030 ft 433 kts 82°
2026-04-29 11:18 23.59347 113.89786 16594 ft 437 kts 82°
2026-04-29 11:18 23.59764 113.93071 17135 ft 441 kts 82°
2026-04-29 11:18 23.60185 113.96387 17671 ft 445 kts 82°
2026-04-29 11:18 23.60609 113.99738 18275 ft 447 kts 82°
2026-04-29 11:19 23.61034 114.03104 18726 ft 453 kts 82°
2026-04-29 11:19 23.61459 114.06471 19298 ft 454 kts 82°
2026-04-29 11:19 23.61891 114.09909 19802 ft 458 kts 82°
2026-04-29 11:19 23.62282 114.13016 20262 ft 461 kts 82°
2026-04-29 11:20 23.62720 114.16508 20660 ft 466 kts 82°
2026-04-29 11:20 23.63158 114.20002 21170 ft 468 kts 82°
2026-04-29 11:20 23.63611 114.23572 21526 ft 473 kts 81°
2026-04-29 11:20 23.64363 114.27053 22038 ft 478 kts 70°
2026-04-29 11:21 23.65659 114.30361 23022 ft 481 kts 60°
2026-04-29 11:21 23.67448 114.33474 23854 ft 480 kts 51°
2026-04-29 11:21 23.69626 114.36256 24149 ft 484 kts 42°
2026-04-29 11:21 23.72169 114.38650 24496 ft 485 kts 34°
2026-04-29 11:22 23.74836 114.40896 24930 ft 487 kts 34°
2026-04-29 11:22 23.77552 114.43166 25289 ft 490 kts 34°
2026-04-29 11:22 23.80265 114.45413 25637 ft 494 kts 34°
2026-04-29 11:22 23.83008 114.47675 26047 ft 495 kts 34°
2026-04-29 11:23 23.85758 114.49935 26334 ft 500 kts 34°
2026-04-29 11:23 23.88548 114.52228 26671 ft 503 kts 33°
2026-04-29 11:23 23.91392 114.54564 27058 ft 505 kts 34°
2026-04-29 11:23 23.94190 114.56859 27354 ft 508 kts 34°
2026-04-29 11:24 23.97012 114.59177 27646 ft 511 kts 34°
2026-04-29 11:24 23.99877 114.61529 27892 ft 514 kts 34°
2026-04-29 11:24 24.02710 114.63860 28450 ft 511 kts 34°
2026-04-29 11:24 24.05563 114.66203 28855 ft 511 kts 34°
2026-04-29 11:25 24.08407 114.68545 29254 ft 511 kts 34°
2026-04-29 11:25 24.11264 114.70895 29633 ft 511 kts 34°
2026-04-29 11:25 24.14108 114.73238 30130 ft 508 kts 34°
2026-04-29 11:25 24.16943 114.75573 30475 ft 509 kts 34°
2026-04-29 11:26 24.22606 114.80244 31281 ft 508 kts 35°
2026-04-29 11:26 24.25337 114.82501 31618 ft 509 kts 36°
2026-04-29 11:26 24.27949 114.84971 31972 ft 511 kts 44°
2026-04-29 11:27 24.30306 114.87932 32460 ft 509 kts 51°
2026-04-29 11:27 24.32534 114.91042 32816 ft 510 kts 51°
2026-04-29 11:27 24.34719 114.94109 33382 ft 507 kts 52°
2026-04-29 11:27 24.36893 114.97180 33782 ft 508 kts 52°
2026-04-29 11:28 24.39047 115.00239 34390 ft 505 kts 52°
2026-04-29 11:28 24.41220 115.03329 34778 ft 507 kts 52°
2026-04-29 11:28 24.43383 115.06416 35205 ft 504 kts 52°
2026-04-29 11:28 24.45508 115.09453 35155 ft 503 kts 52°
2026-04-29 11:29 24.49772 115.15552 35171 ft 503 kts 52°
2026-04-29 11:29 24.54024 115.21644 35168 ft 504 kts 52°
2026-04-29 11:30 24.58285 115.27756 35170 ft 503 kts 52°
2026-04-29 11:30 24.62541 115.33868 35173 ft 503 kts 52°
2026-04-29 11:31 24.66784 115.39972 35169 ft 502 kts 52°
2026-04-29 11:31 24.71035 115.46008 35171 ft 502 kts 51°
2026-04-29 11:32 24.75320 115.52087 35168 ft 503 kts 51°
2026-04-29 11:32 24.79606 115.58176 35169 ft 503 kts 51°
2026-04-29 11:33 24.83888 115.64268 35168 ft 503 kts 51°
2026-04-29 11:33 24.88161 115.70364 35156 ft 504 kts 52°
2026-04-29 11:34 24.92449 115.76486 35161 ft 504 kts 52°
2026-04-29 11:34 24.96742 115.82626 35159 ft 503 kts 51°
2026-04-29 11:35 25.01019 115.88751 35165 ft 506 kts 51°
2026-04-29 11:35 25.05286 115.94867 35163 ft 505 kts 51°
2026-04-29 11:36 25.09569 116.01017 35154 ft 505 kts 51°
2026-04-29 11:36 25.13832 116.07143 35160 ft 504 kts 52°
2026-04-29 11:37 25.18110 116.13299 35170 ft 506 kts 52°
2026-04-29 11:37 25.22413 116.19499 35170 ft 507 kts 52°
2026-04-29 11:38 25.26679 116.25654 35169 ft 505 kts 52°
2026-04-29 11:38 25.30929 116.31797 35175 ft 509 kts 52°
2026-04-29 11:39 25.35210 116.37995 35170 ft 506 kts 51°
2026-04-29 11:39 25.39497 116.44210 35175 ft 508 kts 52°
2026-04-29 11:40 25.41864 116.47643 35167 ft 507 kts 52°
2026-04-29 11:40 25.46151 116.53872 35167 ft 506 kts 52°
2026-04-29 11:41 25.50410 116.60065 35173 ft 508 kts 52°
2026-04-29 11:41 25.54720 116.66342 35168 ft 507 kts 52°
2026-04-29 11:42 25.59129 116.72518 35170 ft 508 kts 49°
2026-04-29 11:42 25.63696 116.78487 35167 ft 508 kts 49°
2026-04-29 11:43 25.68177 116.84377 35166 ft 508 kts 49°
2026-04-29 11:43 25.72762 116.90414 35165 ft 509 kts 49°
2026-04-29 11:44 25.77312 116.96417 35167 ft 509 kts 49°
2026-04-29 11:44 25.81906 117.02484 35175 ft 510 kts 49°
2026-04-29 11:45 25.86466 117.08514 35184 ft 509 kts 49°
2026-04-29 11:45 25.91036 117.14565 35195 ft 513 kts 49°
2026-04-29 11:46 25.95607 117.20621 35189 ft 511 kts 49°
2026-04-29 11:46 26.00192 117.26640 35185 ft 510 kts 49°
2026-04-29 11:47 26.04785 117.32697 35187 ft 511 kts 49°
2026-04-29 11:47 26.09359 117.38736 35187 ft 513 kts 49°
2026-04-29 11:48 26.13960 117.44824 35179 ft 511 kts 49°
2026-04-29 11:48 26.18550 117.50902 35175 ft 513 kts 49°
2026-04-29 11:49 26.23186 117.57048 35169 ft 515 kts 49°
2026-04-29 11:49 26.27769 117.63133 35178 ft 515 kts 49°
2026-04-29 11:50 26.32394 117.69283 35166 ft 516 kts 50°
2026-04-29 11:50 26.37031 117.75455 35159 ft 516 kts 50°
2026-04-29 11:51 26.41638 117.81585 35162 ft 517 kts 49°
2026-04-29 11:51 26.46256 117.87708 35157 ft 519 kts 50°
2026-04-29 11:52 26.50927 117.93914 35157 ft 518 kts 50°
2026-04-29 11:52 26.55134 118.00399 35167 ft 519 kts 62°
2026-04-29 11:53 26.58524 118.07567 35158 ft 518 kts 63°
2026-04-29 11:53 26.61844 118.14699 35163 ft 517 kts 64°
2026-04-29 11:54 26.65120 118.21789 35157 ft 516 kts 64°
2026-04-29 11:54 26.68411 118.28931 35164 ft 518 kts 63°
2026-04-29 11:55 26.71721 118.36133 35165 ft 518 kts 64°
2026-04-29 11:55 26.75003 118.43285 35165 ft 520 kts 63°
2026-04-29 11:56 26.78298 118.50478 35169 ft 517 kts 64°
2026-04-29 11:56 26.81579 118.57651 35166 ft 521 kts 64°
2026-04-29 11:57 26.84879 118.64879 35164 ft 522 kts 64°
2026-04-29 11:57 26.88124 118.72000 35160 ft 520 kts 64°
2026-04-29 11:58 26.91431 118.79268 35157 ft 524 kts 64°
2026-04-29 11:58 26.94715 118.86497 35155 ft 521 kts 64°
2026-04-29 11:59 26.98012 118.93770 35150 ft 522 kts 64°
2026-04-29 11:59 27.01292 119.01013 35159 ft 523 kts 64°